Wind_Gust
6 4 7 7 11 11 8 9 11 10 7 4 2 3 2 2 8 9 7 10 7 9 4 10 9 9 10 8 8 9 5 4 11 12 11 15 19 19 18 19 22 21 25 19 22 22 22 24 23 19 17 17 15 15 17 16 14 17 19 15 14 13 9 9 8 7 7 6 6 5 7 7 4 8 6 7 5 7 5 6 6 5 6 6 5 4
7 5 11 13 12 10 9 4 5 5 5 4 3 4 8 3 4 9 7 7 10 8 3 5 4 6 8 6 9 7 2 7 8 9 9 10 15 20 22 22 23 25 14 14 12 14 14 16 15 16 17 17 20 16 17 19 18 16 15 16 16 12 11 11 11 9 8 7 11 13 11 8 7 8 7 5 3 6 6 6 7 6 6 7 5 4
6 13 15 15 13 6 6 3 4 4 3 4 2 1 5 9 5 7 8 9 7 11 4 2 7 7 9 9 5 7 8 9 11 13 14 14 14 16 18 20 20 13 13 15 18 14 15 16 15 18 18 19 22 20 20 18 15 14 15 14 13 13 14 12 10 9 7 4 7 11 9 11 7 2 4 6 4 5 6 4 6 6 6 5 5 3
7 13 19 15 5 7 3 2 4 5 6 4 6 5 7 7 5 8 10 6 10 7 3 2 5 11 10 7 9 11 13 9 9 10 11 9 16 18 18 22 24 17 17 20 20 19 18 21 21 17 17 19 16 19 15 15 18 16 16 12 13 13 12 11 9 10 7 8 7 7 12 5 7 7 5 6 4 5 6 6 4 5 6 5 5 5
18 16 10 6 7 10 9 3 4 6 4 3 2 3 6 5 5 7 6 4 7 6 3 4 10 13 7 10 12 13 7 4 7 11 11 9 8 13 12 8 15 19 21 24 22 20 19 19 20 23 22 18 19 19 20 19 20 19 18 16 14 13 12 11 11 10 11 12 10 10 8 7 9 9 7 5 5 4 5 5 5 6 6 6 4 3
15 18 3 9 10 8 9 4 5 8 3 7 6 7 9 8 7 6 2 2 8 7 6 2 14 13 9 9 11 16 8 6 7 10 18 18 8 6 9 14 12 16 24 29 26 26 25 25 21 18 17 18 19 21 21 21 20 17 16 14 12 10 10 13 12 13 13 14 16 13 12 9 7 7 6 6 9 7 8 7 2 2 4 5 4 2
18 9 11 12 12 7 6 7 5 8 6 2 13 7 8 8 7 4 2 5 4 10 9 4 6 22 12 9 8 11 6 13 9 10 18 15 12 10 16 18 18 16 13 16 22 23 24 24 24 22 23 23 22 22 19 17 16 16 16 15 14 13 12 13 13 11 13 11 12 13 14 12 14 14 8 4 5 9 6 5 5 5 3 4 4 2
2 4 3 5 5 5 4 3 6 10 9 10 8 3 4 4 6 7 5 9 12 6 6 3 10 13 17 14 11 7 6 12 13 11 14 14 14 15 13 15 14 14 17 22 23 28 30 28 28 27 25 23 25 21 16 16 15 17 17 16 15 12 13 12 14 11 13 14 10 9 8 9 10 12 11 8 7 6 6 7 5 5 2 1 4 3
2 7 5 5 4 5 9 9 5 7 10 13 5 7 7 5 5 3 7 6 5 2 14 12 3 11 14 18 9 2 6 9 13 14 16 17 15 17 17 16 16 16 19 24 25 27 28 28 27 26 25 23 19 18 20 21 20 17 16 16 13 13 13 12 13 13 10 13 12 12 11 9 7 9 10 7 6 9 6 6 2 3 3 2 1 2
7 9 12 11 10 10 9 7 8 11 5 9 6 1 3 2 4 5 2 3 7 8 12 10 4 13 17 15 12 5 4 14 16 16 18 17 19 20 21 17 16 14 10 12 23 26 27 27 27 27 27 22 22 21 19 17 15 15 15 16 16 14 14 14 13 14 11 10 12 11 9 11 9 8 7 7 9 9 6 7 4 4 4 4 3 3
12 8 11 9 12 13 8 9 9 8 11 5 5 6 5 10 9 5 8 6 10 7 15 9 4 8 20 16 14 8 12 10 9 12 13 11 18 21 20 18 17 14 14 14 17 22 28 30 31 25 25 24 19 16 16 15 16 16 17 18 18 18 15 15 16 14 14 11 12 13 11 13 13 10 12 9 7 8 6 8 6 4 5 3 4 3
8 4 5 9 9 7 6 6 4 6 3 5 9 8 6 11 14 9 8 9 6 12 18 6 7 8 7 20 12 13 10 9 13 17 16 11 13 18 14 16 18 17 16 15 15 18 20 19 16 18 20 19 18 15 16 15 16 16 18 19 18 15 16 16 17 16 16 14 13 11 12 14 15 15 14 14 13 11 11 9 10 7 4 5 5 4
6 11 8 6 8 14 5 3 13 6 5 9 9 12 10 10 12 11 9 10 8 18 13 4 7 5 12 23 21 15 18 22 9 11 12 14 18 18 13 16 20 19 16 14 13 16 17 22 23 20 20 18 17 22 21 21 20 20 18 19 20 19 17 19 17 17 16 14 14 14 14 13 15 15 15 14 13 11 12 12 9 7 9 7 7 6
14 11 6 7 6 6 10 8 6 9 4 10 9 8 9 6 6 9 10 9 11 14 10 7 3 14 14 18 10 13 14 13 12 15 11 13 17 17 20 19 17 16 17 17 16 19 22 24 24 26 25 25 25 24 27 24 22 21 21 20 22 23 21 18 17 17 15 15 15 14 15 15 15 14 14 14 14 13 12 13 12 11 12 11 11 7
5 11 13 4 9 7 10 15 16 14 8 13 8 14 14 15 14 12 10 13 15 17 9 3 6 13 3 12 7 9 12 11 9 16 7 4 4 9 13 9 10 10 11 17 19 22 25 26 25 26 27 28 28 28 27 24 23 22 21 22 22 20 17 18 20 16 17 16 13 13 13 14 13 15 14 14 14 14 12 11 12 10 9 11 9 10
11 15 13 7 6 10 11 10 11 6 3 6 6 13 12 10 12 12 16 10 9 6 9 8 14 11 12 9 13 12 13 13 7 14 17 11 15 12 7 8 10 14 16 16 17 19 21 24 25 25 25 27 27 27 26 24 23 22 24 23 23 24 22 21 19 19 19 16 14 11 12 13 13 12 12 11 10 12 13 13 13 11 10 9 9 7
4 13 5 7 7 7 10 11 9 8 11 8 4 7 15 8 12 8 8 3 6 7 18 8 11 14 16 12 11 14 18 15 13 14 13 12 16 19 20 20 17 15 7 6 13 16 14 12 17 24 26 25 23 23 25 26 26 27 25 23 22 20 19 20 21 21 18 16 13 13 12 11 11 13 13 15 12 13 11 12 11 12 10 8 9 8
13 12 9 5 8 3 6 7 6 10 14 11 6 13 7 6 7 13 16 10 9 12 21 3 8 11 6 21 12 18 16 17 16 13 14 14 19 19 15 17 15 16 14 12 10 11 16 22 25 23 22 23 25 27 27 27 25 26 27 25 25 21 21 19 20 18 17 18 16 14 13 13 14 14 13 12 13 12 11 9 9 9 9 9 9 10
10 11 8 2 3 4 10 10 14 9 7 4 11 9 10 14 11 13 8 8 8 13 17 9 5 9 8 15 11 9 11 10 11 11 17 18 18 17 15 16 14 13 17 18 13 9 7 9 14 19 21 23 25 27 28 30 26 22 20 23 26 27 26 24 22 20 19 20 19 18 18 16 13 11 12 11 11 11 12 11 11 11 11 8 8 10
8 11 14 9 6 7 7 8 5 14 15 6 6 11 5 10 12 13 21 11 13 11 5 14 3 16 10 7 4 4 3 8 8 14 14 14 13 15 14 18 17 14 11 15 12 3 7 9 16 18 19 21 21 18 18 21 22 22 23 22 22 22 21 18 19 19 19 19 18 16 14 13 14 13 13 12 12 13 13 13 12 11 8 10 9 9
4 7 10 13 8 8 15 5 5 4 8 18 19 14 15 11 7 8 6 9 12 13 12 12 13 15 12 11 9 7 3 7 7 10 8 9 11 11 12 13 14 14 17 15 11 14 7 3 8 9 10 15 18 21 20 19 23 25 21 21 21 23 21 22 21 20 21 19 18 18 18 17 14 14 13 11 11 13 12 11 11 11 10 9 9 9
6 5 9 8 10 9 12 8 4 4 3 6 7 11 8 13 16 9 20 8 7 12 15 11 24 20 16 7 11 7 5 6 6 11 10 10 10 11 10 11 13 18 15 16 19 13 12 13 3 4 6 10 8 6 9 16 13 11 15 19 20 19 21 23 21 22 21 20 20 20 19 16 13 14 12 12 12 12 12 11 11 10 9 9 8 8
6 6 6 7 11 12 10 9 7 6 6 7 6 13 4 5 5 10 15 15 5 12 9 11 12 23 14 14 10 10 6 8 6 10 8 5 6 7 9 7 6 6 8 12 5 4 5 5 9 10 12 10 9 7 5 7 14 21 22 21 20 23 24 24 25 23 21 21 20 19 17 16 15 14 13 14 12 12 12 11 9 9 11 9 7 5
7 12 10 11 9 8 10 7 6 11 6 10 7 4 7 6 2 5 9 10 8 5 7 8 14 27 12 4 8 7 6 7 6 8 7 5 6 8 8 11 14 17 15 15 17 15 4 7 8 9 5 7 10 11 9 8 8 11 17 21 23 24 25 23 21 20 18 18 19 18 16 17 15 14 14 14 13 13 11 11 10 9 10 8 7 7
11 10 9 7 15 17 13 14 10 11 11 8 9 8 2 4 4 4 4 3 7 9 12 12 21 17 10 7 7 6 6 9 6 4 6 6 5 6 9 8 8 10 17 19 19 20 20 18 9 10 7 12 14 13 15 15 13 14 17 19 19 22 23 23 20 20 19 20 20 18 19 16 16 16 15 15 13 13 12 11 11 9 9 8 7 6
9 8 7 10 14 16 15 11 12 6 9 15 6 6 7 5 9 14 7 9 6 8 3 9 17 17 15 10 11 13 12 10 3 2 3 5 4 5 8 11 13 13 14 14 19 18 17 16 16 12 11 11 9 15 13 14 16 14 12 13 15 17 13 14 17 19 20 20 21 20 19 18 16 17 16 15 13 13 12 12 10 9 7 8 8 6
7 5 8 12 14 16 16 12 9 4 10 14 16 12 14 4 6 6 7 5 11 8 8 12 9 14 19 12 10 10 10 9 12 14 13 7 7 9 9 11 10 10 11 11 11 15 11 15 15 11 10 12 13 10 13 18 20 20 18 15 13 13 15 15 13 15 19 19 20 19 18 17 17 16 15 14 13 12 11 10 9 8 8 7 8 8
5 5 6 7 10 13 12 11 6 5 15 18 18 25 18 3 3 4 10 19 10 4 18 12 8 7 16 12 5 6 7 7 6 8 11 14 16 16 12 10 11 12 12 12 13 14 14 13 11 13 11 13 14 13 12 12 17 23 26 26 21 19 18 16 17 17 16 15 16 18 18 16 14 14 14 12 12 11 10 9 8 8 7 7 7 7
7 9 8 6 8 9 10 12 9 9 10 16 17 15 18 11 2 9 10 11 7 9 18 15 6 7 12 9 6 7 8 7 8 9 7 5 9 13 15 16 15 14 12 13 12 11 13 15 13 14 13 11 11 12 12 12 14 14 12 14 18 18 18 18 18 19 16 14 15 15 14 13 12 12 13 13 12 11 10 9 8 7 7 6 7 8
8 8 8 10 14 7 6 8 9 13 11 14 16 14 8 5 10 8 9 7 9 9 12 14 7 10 13 10 8 10 8 7 7 7 10 13 9 9 10 10 10 10 11 12 11 10 9 11 12 14 16 14 13 14 14 12 11 12 12 14 15 17 14 17 19 19 17 17 15 11 8 11 12 13 13 13 12 11 9 9 8 8 7 7 7 7
7 16 6 5 5 7 5 9 9 11 11 18 15 4 3 4 6 7 7 7 5 6 7 6 4 10 7 4 5 7 9 8 14 13 10 8 8 8 7 7 7 7 9 8 9 9 10 10 11 13 15 17 17 17 15 15 12 10 10 9 13 17 16 18 20 20 20 20 18 17 14 8 10 12 13 11 11 9 9 9 9 7 7 7 6 6
11 13 5 5 7 11 7 8 12 7 9 13 12 2 6 8 11 10 15 8 5 11 8 3 9 11 8 7 4 8 8 10 8 6 7 7 6 7 6 6 6 7 9 10 10 10 10 12 12 12 13 15 18 18 15 15 15 10 11 9 9 6 10 14 17 18 19 22 24 26 26 20 15 12 11 12 11 10 9 8 7 7 6 6 6 3
10 8 8 4 6 11 10 9 7 5 12 25 15 9 14 14 8 7 5 3 4 4 3 3 9 7 4 4 8 9 6 5 4 5 6 6 5 3 6 5 5 6 7 9 11 11 10 10 9 10 12 9 14 18 17 16 15 16 11 12 10 12 14 17 20 18 18 17 17 17 18 17 16 15 13 12 11 10 10 8 7 7 7 7 4 3
4 7 12 8 14 7 3 6 5 9 20 24 10 10 8 5 4 3 6 4 2 3 8 10 6 2 2 4 6 4 6 6 4 8 6 5 2 3 4 4 4 4 6 7 8 9 10 14 16 13 8 9 9 13 17 18 17 18 13 7 11 16 16 17 14 16 16 18 19 20 21 21 20 16 13 11 11 10 9 8 8 7 7 6 4 5
12 10 10 10 13 15 5 3 10 19 32 8 3 5 5 7 9 7 6 5 2 2 7 7 2 1 1 1 2 2 5 5 6 8 4 3 5 4 3 4 5 6 8 8 8 8 9 11 15 19 19 17 14 9 12 20 20 17 11 9 12 10 16 18 19 17 17 18 18 19 20 21 22 19 15 12 11 10 9 9 7 7 5 6 7 8
13 15 15 15 13 8 9 13 21 41 9 4 6 8 5 7 3 1 8 4 5 4 11 8 5 4 3 2 3 5 5 8 6 7 5 2 3 4 5 6 7 7 9 8 7 7 8 9 12 14 17 19 21 19 13 14 18 17 11 11 10 10 9 12 15 18 19 20 20 20 20 20 17 17 15 13 11 11 10 9 9 9 7 7 6 5
18 9 11 18 12 26 15 14 28 16 23 12 12 14 17 19 8 10 12 6 2 3 5 5 4 5 5 6 5 5 7 8 6 4 6 5 7 8 8 8 7 10 10 9 8 9 8 8 9 12 14 16 20 21 20 16 17 17 12 8 19 19 21 23 22 21 19 20 18 19 19 18 18 15 14 12 12 11 10 11 10 8 7 10 8 6
14 19 16 17 20 17 18 15 16 13 26 8 8 10 10 5 9 9 11 5 4 3 4 5 1 3 4 6 8 8 10 20 21 14 5 7 6 9 14 14 13 10 9 9 8 8 6 7 9 13 16 18 21 20 18 17 16 16 16 14 14 23 23 24 25 25 24 23 22 23 18 16 16 16 13 12 11 9 9 10 9 9 8 12 9 8
12 17 10 21 15 7 10 20 23 21 21 7 9 8 9 9 6 3 7 8 6 3 6 2 2 3 2 3 6 7 14 16 20 18 8 7 12 10 12 15 14 12 11 9 8 10 10 12 13 17 17 17 20 20 15 16 15 14 16 17 16 15 16 16 19 22 24 23 22 22 21 19 16 16 15 13 13 14 13 11 11 9 8 10 10 10
12 5 8 9 14 11 9 13 19 14 16 4 8 7 11 8 6 8 9 15 7 6 7 2 5 2 5 3 3 5 4 14 20 22 11 11 12 12 12 16 16 12 11 9 8 8 11 12 16 18 17 18 21 18 15 14 14 14 15 17 17 21 20 21 20 18 19 19 18 20 19 18 16 16 17 16 14 12 12 11 11 9 10 9 10 9
13 12 5 16 11 14 12 17 13 16 7 4 7 12 12 8 7 7 14 11 8 6 6 5 3 6 5 4 4 10 12 14 17 19 15 14 15 17 13 11 13 11 13 13 15 10 12 13 13 17 18 19 19 17 14 14 13 17 15 16 16 23 24 25 26 25 27 26 24 17 16 15 18 19 16 16 16 13 11 12 13 11 10 10 7 6
7 6 9 8 3 8 8 13 22 8 7 3 10 9 5 5 7 7 11 8 6 6 7 7 6 7 6 8 8 11 13 12 13 14 15 15 14 17 16 13 13 15 14 12 14 12 14 15 13 14 15 16 18 17 14 13 14 14 17 16 19 21 21 22 23 23 20 21 22 21 17 17 17 18 18 13 13 11 11 11 11 13 11 9 8 6
12 14 7 4 10 7 6 9 5 8 5 10 6 7 3 8 11 9 8 8 5 7 7 7 6 8 6 8 8 11 12 13 12 15 15 15 14 15 15 14 15 17 20 20 20 15 15 17 17 16 16 17 15 14 13 9 9 10 13 21 19 18 19 21 22 21 21 19 20 19 18 17 17 16 14 13 13 12 11 8 8 7 7 8 6 6
7 10 10 7 5 7 7 12 11 11 8 8 6 5 7 9 10 7 4 7 8 8 7 7 7 7 6 8 10 10 11 12 14 14 15 17 14 11 13 15 15 16 18 18 18 19 16 19 18 17 14 15 13 11 11 9 8 14 15 18 15 23 24 24 24 25 24 23 19 18 16 15 15 14 13 13 11 10 8 7 7 7 9 8 8 6
8 6 6 8 9 10 12 9 10 9 5 8 9 9 10 9 4 7 5 7 6 8 4 3 6 8 8 10 11 12 13 13 14 14 14 18 15 12 14 15 15 17 20 22 22 19 16 19 19 18 16 14 11 9 9 6 8 11 16 14 19 25 25 27 27 26 23 17 16 16 16 14 14 13 13 12 11 9 7 5 6 8 6 6 5 7
4 5 3 7 14 7 12 14 6 6 6 7 10 9 7 4 3 5 4 5 5 7 6 7 8 10 11 9 11 12 13 12 13 15 14 14 14 12 11 14 17 19 20 20 19 19 18 17 16 15 16 12 7 6 2 6 4 8 10 18 23 23 27 27 29 24 19 17 16 15 15 15 13 13 12 11 10 11 11 12 11 11 9 7 9 9
7 4 6 12 6 8 25 6 10 15 13 12 12 5 7 6 5 5 4 6 7 8 9 9 11 12 13 10 11 14 16 12 14 16 13 13 14 12 12 16 19 20 21 23 22 20 18 15 14 13 11 14 11 7 6 3 6 12 14 9 16 24 26 28 27 21 17 18 16 15 15 15 13 12 10 9 9 7 6 8 10 9 8 10 10 10
13 4 20 10 7 11 19 12 18 16 12 11 11 4 7 7 7 6 8 8 8 9 9 13 10 12 9 11 13 13 17 13 13 15 15 13 13 11 15 17 20 21 21 20 20 18 17 15 11 11 13 15 12 7 10 6 11 15 16 15 14 20 23 22 22 21 19 19 16 15 13 13 10 12 7 5 5 6 5 4 9 11 11 13 13 12
15 9 16 7 20 18 15 15 14 11 12 7 5 6 7 7 6 8 7 9 10 11 13 13 10 13 11 16 13 12 14 15 14 15 14 12 11 12 15 19 20 21 21 21 21 18 16 9 15 17 18 18 13 11 14 11 15 19 16 19 20 17 20 22 20 20 17 14 13 12 11 12 11 8 10 10 7 4 10 14 11 11 11 11 12 15
10 21 14 8 15 16 17 19 8 19 24 17 8 10 10 8 6 8 8 8 8 11 13 14 16 13 13 14 14 14 15 17 15 9 11 11 11 14 17 19 21 20 21 20 21 17 12 11 14 16 18 17 8 11 14 19 23 24 23 21 20 18 22 20 19 18 15 14 13 12 11 9 10 10 12 11 9 4 1 2 5 10 13 13 13 16
13 15 10 15 14 20 14 13 9 12 15 16 12 6 7 8 8 11 12 12 11 11 13 13 14 14 15 15 12 12 15 15 12 7 8 9 12 16 18 20 21 22 21 19 18 17 12 11 11 13 17 10 8 7 15 19 23 25 19 15 15 20 21 18 17 15 14 14 12 12 10 13 14 13 12 10 8 4 3 2 3 3 9 10 11 13
Wind_Speed
2 1 4 5 6 7 5 6 7 6 5 2 1 2 1 1 4 5 3 5 3 4 1 5 5 5 6 5 5 5 3 1 6 9 7 10 11 11 11 12 13 14 15 12 13 13 14 14 13 10 10 10 9 9 11 10 8 9 10 9 9 8 6 6 5 4 4 3 3 2 2 3 1 5 4 4 2 3 3 3 3 3 4 4 3 3
3 2 6 9 8 7 6 3 3 3 1 2 1 2 4 0 2 4 2 4 3 3 1 4 1 4 5 4 5 4 0 5 6 6 6 7 10 11 14 14 14 15 7 8 7 7 7 8 8 9 10 11 12 10 11 12 11 9 8 10 9 6 7 7 6 5 4 3 6 6 6 3 2 4 4 3 2 3 3 4 4 4 4 4 4 2
2 6 9 10 9 3 2 0 2 3 2 2 0 0 2 3 3 4 5 6 3 5 1 0 2 3 5 5 3 4 3 4 6 8 9 10 10 10 11 13 12 8 7 8 10 8 9 9 9 10 10 11 14 13 13 11 10 9 9 8 7 7 7 7 6 5 4 2 4 5 4 6 2 1 1 2 2 2 3 3 4 3 3 3 3 2
4 6 13 10 2 4 1 1 3 3 3 3 2 1 3 3 2 3 4 4 6 3 1 0 2 5 6 4 5 7 7 5 5 6 7 4 10 12 11 14 14 11 10 12 12 12 11 12 11 9 10 11 9 11 9 9 12 9 9 8 7 7 6 6 6 6 4 5 5 4 7 3 3 3 2 4 2 3 3 2 1 2 3 4 3 4
9 10 3 2 5 6 6 1 2 1 2 1 1 1 2 2 2 4 2 2 4 2 1 2 4 6 3 5 6 7 2 2 4 7 7 5 5 6 7 4 9 12 13 14 12 11 11 11 12 15 14 10 11 11 12 12 11 9 12 10 9 8 7 6 6 6 6 7 6 6 5 4 5 5 3 3 2 1 2 2 2 3 3 3 3 2
9 12 1 2 5 5 5 3 3 4 1 2 3 5 5 5 4 3 1 0 2 2 2 0 3 2 4 4 6 9 4 3 3 5 11 12 5 4 6 9 8 10 15 19 17 17 16 16 13 10 10 11 11 12 12 12 12 11 10 9 7 6 5 7 8 8 8 8 9 7 7 5 4 4 3 4 5 4 4 4 1 1 2 3 3 1
8 4 6 7 8 5 4 3 3 4 3 1 5 4 5 5 3 2 2 3 1 3 3 1 3 5 5 5 5 6 3 7 5 4 12 10 6 6 10 11 11 10 8 10 15 14 14 13 14 14 14 14 14 14 11 10 10 10 10 9 9 7 6 7 8 8 7 7 7 8 8 7 8 7 4 2 3 5 3 2 3 3 1 1 3 1
1 2 2 2 3 3 3 1 2 5 5 2 4 2 1 2 3 3 3 6 5 2 2 2 3 4 4 7 6 5 4 6 8 7 9 9 7 10 9 10 9 9 11 13 14 17 19 18 18 17 17 14 15 13 10 9 9 11 11 10 9 7 7 7 8 7 8 8 6 6 5 5 6 7 6 4 4 3 3 4 4 2 1 0 1 2
0 3 3 3 2 2 4 4 2 4 4 4 3 5 5 2 3 2 4 4 2 0 6 6 1 1 2 7 5 1 4 6 8 9 9 11 9 10 11 10 10 11 13 16 15 17 18 18 18 16 15 15 11 10 12 13 12 10 10 10 8 8 8 7 9 8 6 8 8 7 7 5 4 5 5 4 3 4 3 4 1 1 1 0 0 1
2 4 6 6 5 5 5 4 5 8 1 5 4 0 1 1 2 1 1 2 2 3 5 6 1 2 6 7 6 1 1 7 9 10 11 11 11 12 12 11 10 8 7 9 16 17 17 17 17 17 15 12 13 12 12 10 8 9 9 10 10 9 8 8 9 9 7 7 7 7 6 7 5 4 3 4 5 4 4 4 2 3 1 1 1 1
5 5 6 3 5 7 5 6 5 5 7 1 2 3 2 6 5 2 5 3 4 1 5 6 2 2 5 7 7 3 4 4 5 7 7 5 8 12 13 12 9 8 7 9 11 14 18 18 18 15 15 15 11 9 9 9 10 9 10 11 12 11 9 9 10 10 9 7 7 8 7 8 8 6 7 5 4 4 4 4 3 3 3 1 2 1
4 1 1 2 5 2 3 2 2 4 2 1 0 2 1 4 7 2 3 5 1 4 7 1 3 5 1 8 5 7 6 6 8 11 11 6 9 11 9 8 10 9 8 7 10 12 14 12 10 9 12 12 11 8 8 8 9 10 11 11 12 10 10 10 11 10 10 9 8 7 8 9 10 10 8 8 8 7 7 5 5 3 1 2 2 1
2 4 2 4 3 10 1 2 7 3 3 5 5 6 5 3 3 2 3 3 2 5 5 0 5 2 5 11 12 8 10 11 5 6 8 9 11 12 9 10 10 10 8 7 9 10 11 13 14 13 12 10 10 12 13 13 12 11 11 13 13 13 11 12 11 11 10 9 9 9 9 8 9 9 9 9 8 7 7 7 5 4 5 3 3 3
6 5 3 3 4 1 5 3 1 4 1 6 4 3 4 0 0 2 3 1 4 6 6 3 2 3 5 8 6 8 9 8 7 8 8 6 9 11 11 11 11 10 10 8 9 11 13 14 13 16 16 15 15 15 16 15 13 12 12 13 14 15 13 12 11 11 10 10 10 9 9 9 9 9 9 8 8 8 7 7 7 7 7 6 6 4
1 2 5 2 2 2 3 7 9 6 4 7 4 7 7 6 3 3 2 3 6 8 4 2 1 3 1 4 2 5 7 7 6 10 3 2 2 5 5 1 4 5 7 9 10 12 15 16 16 15 16 16 16 18 17 14 14 13 13 13 14 12 11 12 13 10 11 10 9 8 8 8 8 9 8 8 8 8 7 6 7 6 6 7 6 6
6 5 5 4 4 1 0 2 2 3 1 2 3 7 6 4 6 4 6 4 3 1 3 2 3 4 4 4 8 5 7 4 3 10 12 8 11 10 3 1 2 6 9 9 10 12 14 16 16 15 15 16 16 18 16 15 13 13 14 15 15 15 14 13 13 12 12 10 8 8 8 8 8 7 7 7 6 7 8 8 8 7 6 6 6 4
1 3 3 5 3 5 4 4 2 3 1 2 2 2 8 3 6 1 2 0 5 4 6 2 4 6 6 7 6 9 10 9 9 9 8 8 11 12 11 12 11 9 6 2 5 9 9 7 11 14 16 15 14 14 15 16 16 18 16 14 14 13 12 13 13 13 11 10 9 9 8 7 7 8 9 9 8 8 7 7 7 7 6 5 5 5
5 4 4 1 2 2 1 1 2 2 4 5 1 6 2 3 3 2 4 2 0 3 6 1 3 4 3 4 6 10 9 8 9 6 8 8 12 12 9 9 10 10 9 7 6 4 4 13 16 14 14 15 16 17 17 17 16 16 16 16 16 13 14 12 12 11 11 11 11 9 9 8 9 9 8 8 8 7 7 5 5 5 6 6 5 5
3 3 1 1 1 2 4 5 7 3 4 3 5 3 1 1 3 5 3 0 1 2 3 2 1 3 4 5 4 5 7 6 7 8 12 12 12 11 10 11 10 9 11 12 9 5 3 4 4 10 13 15 16 17 18 18 16 13 13 14 16 18 16 15 12 12 11 12 10 10 11 10 8 7 7 6 7 7 7 7 7 7 7 5 5 6
3 3 4 2 2 1 3 4 1 6 5 3 1 5 2 3 3 4 6 3 5 4 1 5 1 5 4 2 3 2 2 5 5 9 9 9 9 9 9 11 10 9 6 5 4 2 5 4 3 5 6 11 12 10 10 11 11 14 14 14 14 13 12 11 12 11 12 11 10 10 8 8 9 8 8 7 7 8 8 8 7 7 6 7 5 6
0 2 2 4 3 2 2 1 2 2 2 7 9 5 5 2 3 2 1 2 4 3 4 3 3 4 4 6 5 5 2 4 5 6 5 6 6 5 6 8 9 9 9 8 5 7 4 1 2 0 3 6 6 3 6 10 13 14 12 12 12 13 12 12 12 11 12 11 11 11 12 10 9 9 8 7 7 8 7 7 7 7 6 5 5 5
2 1 3 2 4 3 5 3 3 2 1 1 1 4 3 5 7 3 8 3 1 3 3 3 8 7 6 3 6 4 3 4 4 7 5 4 5 5 6 6 6 8 7 9 12 8 8 9 3 3 3 2 0 1 2 4 5 5 7 11 11 11 11 13 12 12 12 10 11 12 12 11 8 9 8 8 8 8 7 7 6 6 5 6 5 5
1 2 2 1 4 5 5 6 4 1 1 3 3 3 0 1 2 2 4 5 2 3 3 3 2 9 6 6 5 5 4 4 4 5 5 3 4 3 2 2 3 4 5 5 3 3 4 4 5 7 4 6 6 3 1 0 1 3 5 9 11 13 15 15 15 13 11 11 10 12 10 10 9 8 8 9 8 8 8 7 6 6 7 5 5 4
4 1 0 2 5 5 6 4 4 7 3 3 3 2 4 2 1 0 2 4 2 2 1 1 2 7 3 0 5 4 5 4 1 4 4 4 3 3 4 5 7 8 6 6 5 1 1 1 6 6 4 2 6 8 7 5 5 5 3 4 6 10 14 14 12 12 11 10 11 10 9 10 9 9 9 9 8 8 7 7 6 6 6 5 5 5
2 2 3 1 3 6 6 6 4 6 6 2 1 2 1 1 2 2 1 1 1 4 6 6 8 3 2 2 0 4 4 5 3 2 3 4 3 4 5 5 5 6 10 11 10 11 10 8 5 7 5 4 5 6 8 10 9 9 9 7 2 3 7 7 7 10 11 11 11 9 10 10 10 10 10 9 8 9 8 7 7 5 6 5 4 4
2 3 2 2 4 5 3 1 3 2 3 3 1 1 0 2 3 7 2 4 1 3 1 2 4 8 8 4 7 8 5 2 1 1 1 1 1 4 5 8 8 8 8 8 10 10 10 7 6 8 8 7 5 5 6 7 10 9 7 8 9 8 6 1 5 5 8 10 11 11 11 11 10 11 10 9 8 9 8 7 6 6 4 5 5 4
0 0 3 6 6 8 8 5 4 1 2 4 7 5 5 3 2 4 3 1 4 3 4 5 4 8 12 7 7 7 5 5 7 6 4 4 5 5 6 7 6 6 6 7 6 7 7 10 9 7 7 7 8 7 5 7 9 9 10 8 7 7 8 9 7 2 4 4 6 8 9 9 10 9 9 8 8 7 6 6 6 5 5 4 5 5
2 0 3 4 6 7 7 7 4 2 6 7 7 13 11 2 2 1 4 7 4 1 8 3 5 3 9 6 2 3 5 4 4 4 6 6 5 5 3 4 7 7 7 7 9 9 8 7 7 9 8 9 8 8 7 7 6 11 14 15 12 11 11 9 11 11 11 6 4 6 8 7 6 8 7 6 7 7 6 6 5 5 4 4 4 5
1 1 4 2 4 6 7 8 6 4 6 7 9 8 7 4 2 5 5 7 4 4 8 8 3 3 7 4 4 5 5 4 6 6 3 3 5 7 9 9 8 7 7 8 7 7 8 9 7 8 8 7 8 9 8 5 6 9 8 8 9 9 11 11 11 11 10 8 5 1 3 0 3 4 6 6 6 6 6 6 5 5 4 4 4 4
1 3 5 6 7 3 4 6 6 8 5 7 8 7 4 3 6 5 5 4 6 6 8 9 5 6 5 4 4 4 4 4 3 3 6 9 6 6 7 7 7 7 7 8 7 7 6 7 7 8 9 9 9 9 9 8 6 4 6 6 7 9 7 9 10 11 10 10 9 7 2 0 1 3 4 6 6 6 6 6 5 5 5 4 5 4
1 5 0 0 1 2 3 6 5 7 8 9 9 2 2 3 3 4 3 4 4 4 4 5 2 4 2 2 1 2 4 4 8 9 6 5 6 6 5 5 5 5 6 6 6 6 6 6 7 7 8 9 11 12 9 9 8 6 5 5 5 6 7 9 11 11 12 12 11 11 8 3 3 3 5 5 5 5 6 6 5 5 4 4 4 4
5 5 2 1 2 4 3 4 8 5 5 7 5 1 3 5 6 4 3 3 0 5 2 0 3 4 2 4 1 3 4 6 4 4 5 5 4 3 4 4 4 5 5 5 5 5 6 6 6 6 7 7 8 10 10 9 9 7 7 6 5 2 1 4 7 9 10 11 13 15 16 13 10 6 3 4 5 6 6 5 5 4 4 4 4 2
3 1 1 0 2 3 6 5 3 3 6 13 8 5 9 9 5 1 1 1 2 2 1 1 4 2 2 2 3 5 4 3 3 3 3 4 3 2 4 3 4 4 5 5 6 5 5 6 5 6 6 5 6 8 11 11 9 10 7 5 5 5 7 8 9 9 8 7 8 10 11 11 11 10 8 7 6 6 6 5 4 4 4 4 3 2
2 3 4 3 3 2 2 2 2 3 8 8 3 6 5 2 1 1 1 1 1 2 2 4 2 1 0 2 4 2 4 3 1 4 3 3 2 3 2 3 2 3 4 4 4 4 5 6 7 7 5 5 5 5 7 11 11 11 9 4 4 6 8 9 8 9 9 9 10 12 13 13 12 11 8 7 7 7 6 5 5 5 5 4 3 3
7 5 4 3 2 5 3 1 3 7 10 3 1 2 3 5 5 4 4 3 1 0 5 4 1 0 0 0 0 1 2 3 4 6 2 2 3 3 1 3 4 4 5 5 5 5 5 5 7 9 11 9 7 6 6 8 12 11 7 4 7 6 6 8 10 9 10 11 11 10 11 12 13 12 10 8 7 6 6 6 5 5 4 4 5 5
6 7 3 2 3 1 1 3 2 12 2 2 4 5 1 4 1 1 1 1 3 3 6 5 3 2 2 1 2 3 3 5 4 5 3 2 2 1 2 4 4 5 6 5 5 5 5 6 6 7 9 10 11 11 8 8 9 11 8 4 5 6 6 5 4 3 7 11 11 12 12 12 11 10 10 9 6 6 6 6 6 6 4 4 4 4
11 3 3 6 3 8 4 7 11 5 9 6 4 4 5 7 3 5 5 2 1 0 3 3 3 3 3 4 3 3 5 3 3 2 3 2 2 2 4 5 5 6 6 6 5 6 5 5 5 6 7 10 12 13 12 9 9 10 8 4 5 9 11 12 13 12 9 7 8 6 8 11 11 10 9 8 8 7 6 7 6 5 4 6 5 4
7 7 6 6 4 6 8 5 3 2 7 2 3 6 6 2 4 4 6 1 2 2 2 3 1 2 3 3 3 3 4 10 11 5 3 5 4 5 5 6 6 6 6 6 5 5 4 4 5 6 7 11 13 13 11 10 9 8 10 8 8 9 11 13 14 14 14 14 14 14 11 10 10 9 8 7 7 6 6 6 5 5 5 7 6 5
4 8 5 10 3 2 2 5 4 5 5 1 5 5 6 4 3 1 2 3 2 2 2 2 1 2 1 2 4 5 8 7 9 8 5 4 6 5 7 8 7 7 7 6 5 6 6 6 6 8 9 10 13 13 10 10 8 8 10 10 10 9 10 9 10 12 14 13 13 13 13 12 11 10 9 9 8 8 8 7 7 4 4 6 6 6
8 3 4 3 4 3 3 3 6 1 2 2 4 4 8 5 3 3 2 4 2 3 4 1 4 1 2 2 2 1 1 7 10 9 4 4 6 6 6 10 10 8 6 6 5 5 7 6 7 10 11 11 13 12 10 9 8 8 9 9 9 12 12 13 12 10 10 12 11 11 11 11 10 10 10 10 9 8 7 6 5 6 6 6 6 6
5 5 1 6 5 4 2 3 1 3 1 2 4 5 8 3 4 2 5 2 3 4 3 3 2 4 3 3 3 5 6 8 10 11 8 6 8 10 7 6 8 7 7 8 9 7 7 7 7 9 11 11 12 11 9 9 9 8 9 8 10 14 15 15 14 15 16 16 14 11 8 7 9 11 10 10 10 8 7 7 7 7 6 6 5 4
3 2 4 3 1 3 3 3 5 1 2 1 6 6 3 2 0 3 2 3 4 4 4 4 4 5 4 5 5 6 7 7 8 9 10 9 8 9 10 8 7 8 8 7 9 8 9 9 8 9 10 10 11 11 9 8 9 9 9 9 12 13 9 11 13 13 12 11 11 12 11 8 9 11 10 8 8 7 7 7 7 7 7 5 5 4
3 2 2 1 3 2 1 2 0 1 0 5 3 4 1 1 3 3 4 5 3 4 4 5 4 5 4 5 5 7 7 8 8 10 10 10 9 10 10 8 9 10 12 12 12 10 9 10 10 11 10 10 10 9 8 6 7 7 8 12 11 9 11 10 12 13 13 12 12 12 11 10 11 10 8 8 8 8 7 5 5 4 4 5 4 4
2 2 2 1 1 1 1 1 1 2 3 2 2 1 2 4 4 4 2 4 4 4 4 4 4 4 4 5 7 7 8 8 9 9 10 11 10 7 7 7 7 8 10 11 11 12 10 12 11 11 9 9 9 7 7 3 5 6 10 11 8 12 14 13 14 14 15 14 13 11 9 9 9 9 8 9 7 6 5 4 4 4 6 5 5 4
2 1 2 2 3 1 2 2 5 4 3 4 5 5 5 5 3 4 3 4 4 4 2 1 4 5 5 6 7 8 8 8 9 10 9 12 10 8 7 8 7 9 11 13 14 12 10 12 12 11 10 9 8 6 5 4 2 6 8 8 9 10 12 15 15 16 14 10 9 9 9 8 8 8 7 7 7 6 5 3 4 4 3 4 3 3
1 1 2 1 5 3 5 7 3 3 2 4 5 5 4 3 2 1 0 1 3 4 3 4 5 7 7 6 6 7 8 8 8 9 9 9 9 8 6 7 8 9 11 11 11 12 11 11 10 10 11 8 5 3 2 4 1 3 4 4 8 13 15 16 17 15 12 11 9 8 9 9 8 8 7 7 6 7 7 7 6 6 5 4 5 5
2 1 0 2 2 4 5 3 5 9 8 7 7 3 4 4 3 3 2 4 5 5 6 6 7 7 8 7 7 9 10 8 9 10 9 8 9 8 8 9 10 10 11 13 13 13 11 10 9 9 5 7 7 3 2 1 2 6 9 5 8 12 15 16 16 13 10 9 9 9 8 9 8 7 6 6 6 3 3 4 6 5 5 6 7 5
5 1 8 3 3 4 6 5 9 10 7 7 6 2 3 3 4 4 5 5 5 5 5 8 6 7 6 7 8 9 11 9 8 10 9 8 8 7 8 9 11 12 12 12 13 12 11 10 7 5 8 9 8 4 3 1 5 6 6 9 7 8 12 13 13 13 12 11 9 9 8 8 9 9 5 3 4 4 3 3 4 6 6 7 7 7
6 4 5 2 6 7 8 9 8 7 8 5 3 4 5 4 4 5 5 5 5 6 8 8 6 8 6 10 9 8 9 10 9 10 9 7 7 7 8 10 11 12 12 13 14 12 10 6 6 9 12 12 5 4 5 1 7 9 6 5 7 8 11 13 13 12 11 9 7 7 7 7 7 4 6 6 4 3 5 7 6 6 5 5 6 8
4 9 6 4 7 7 6 9 4 6 9 8 5 7 6 5 4 5 5 5 5 7 8 9 10 8 8 9 9 8 10 10 10 6 7 7 7 7 9 10 11 12 13 13 12 11 9 6 7 10 12 10 4 6 8 5 9 10 10 10 10 11 12 12 11 11 9 8 7 6 6 6 6 6 7 7 7 4 1 0 4 4 7 7 11 13
5 7 3 5 5 8 8 8 5 6 7 9 7 4 5 5 5 7 8 8 8 7 8 9 9 9 9 9 5 6 9 10 8 5 5 5 7 8 9 11 13 13 12 12 11 11 7 5 6 8 12 6 3 4 7 12 13 15 12 9 9 11 12 11 10 8 8 8 7 7 6 7 7 7 7 6 5 3 2 1 1 3 8 9 9 10
Wind_Direction
144 169 214 216 223 225 246 205 189 203 177 208 101 111 237 13 285 268 322 346 343 103 148 193 205 208 233 234 264 261 291 311 193 196 180 188 186 184 184 182 184 182 188 181 173 172 171 173 168 153 146 148 150 154 154 151 160 160 160 157 169 178 158 150 148 137 140 121 82 68 132 141 179 119 111 105 123 118 127 102 81 63 66 72 70 77
74 219 255 225 219 199 214 198 116 77 77 126 100 6 317 350 318 291 296 333 349 139 348 21 343 302 277 293 273 285 155 236 242 223 216 187 195 190 185 187 186 193 179 152 164 176 163 159 154 149 151 152 156 171 160 161 167 169 162 167 175 168 162 163 167 167 156 166 166 161 182 164 171 111 110 119 132 134 117 103 97 95 80 66 53 31
223 218 242 235 221 183 200 174 156 159 108 64 116 188 329 296 244 292 335 344 352 82 277 78 55 278 278 268 265 281 231 240 213 208 210 185 190 199 196 190 185 172 170 166 169 163 169 166 160 158 163 172 165 165 168 168 160 166 170 180 169 174 170 169 165 150 163 158 152 149 172 152 138 322 151 144 174 138 106 94 128 118 105 103 83 43
275 274 244 241 122 158 116 155 89 60 64 116 62 51 256 234 67 305 302 344 344 81 272 325 341 286 293 278 261 208 207 254 245 221 245 213 189 191 196 190 185 176 156 166 168 173 171 173 167 165 171 172 166 165 168 165 168 169 176 179 169 178 178 165 165 165 163 145 159 130 136 131 120 162 99 62 51 79 81 86 96 103 99 83 76 84
217 239 250 167 175 174 190 171 91 73 286 313 150 185 231 306 236 154 247 324 337 336 101 75 21 332 301 278 306 292 189 207 278 275 271 250 240 230 199 183 179 168 169 170 173 170 166 171 178 180 180 165 169 175 174 174 173 176 179 180 174 175 177 172 157 144 139 118 102 99 80 88 71 50 52 68 38 58 129 116 102 140 122 111 103 93
266 260 268 158 196 183 168 203 191 130 291 316 249 193 223 239 245 260 311 60 24 331 315 134 0 296 286 278 240 256 322 294 271 212 242 244 213 191 191 196 202 187 175 171 172 173 177 181 181 180 169 175 179 180 184 177 178 172 175 173 170 170 169 159 155 154 145 140 136 133 126 122 121 129 134 155 163 159 156 181 220 219 142 133 124 104
218 245 176 199 198 193 166 173 232 133 185 110 273 191 216 228 222 197 140 82 129 196 277 80 186 266 314 275 255 275 312 285 288 216 242 239 203 197 201 200 197 176 185 181 168 168 172 180 181 184 182 183 181 189 178 177 177 174 172 174 169 168 171 160 157 158 140 137 145 153 159 159 163 164 210 215 186 154 185 141 148 185 196 117 112 135
4 352 83 77 130 121 86 215 250 136 108 239 241 165 236 259 250 243 158 183 225 255 313 18 126 216 298 282 250 258 266 272 286 269 253 245 205 201 208 203 200 180 170 168 173 176 180 181 182 186 190 185 188 180 171 174 175 176 177 173 170 168 169 168 157 158 153 146 151 146 147 155 157 170 181 183 176 173 148 137 154 147 234 251 170 117
276 266 166 136 117 126 186 207 216 140 133 217 251 199 245 223 216 221 102 132 194 71 279 322 337 351 266 264 293 257 287 288 273 263 246 237 213 207 205 203 200 189 174 171 175 182 183 185 190 187 186 191 178 168 176 182 182 177 174 170 166 169 170 169 159 155 159 150 159 156 153 151 173 168 169 162 149 147 136 125 125 137 197 313 17 164
292 207 220 163 137 195 225 231 180 150 165 278 209 155 101 95 96 137 108 78 355 57 292 276 272 242 276 276 315 337 235 270 267 268 256 228 212 207 212 207 203 200 170 170 178 180 186 188 189 189 184 176 183 184 182 178 167 171 169 171 171 174 176 168 163 156 162 157 149 152 165 162 171 169 148 139 154 153 141 144 184 166 178 213 105 110
234 270 189 119 186 203 187 225 157 173 213 212 97 197 344 22 5 6 71 94 60 8 265 245 254 154 290 265 231 213 227 225 265 275 258 248 221 217 213 204 205 205 188 164 177 185 187 190 188 182 181 185 179 180 175 170 173 171 174 176 178 180 173 170 164 160 167 165 161 165 172 171 169 172 156 153 164 147 137 159 195 184 204 221 206 196
336 345 109 252 165 167 150 229 233 176 203 120 269 143 39 325 0 27 344 47 100 274 262 332 188 116 195 291 282 242 286 278 254 271 277 205 211 223 216 213 213 213 208 170 157 182 190 187 185 176 181 182 181 168 176 180 174 176 180 179 179 179 179 174 168 167 170 169 173 168 169 172 172 166 167 171 172 173 170 175 185 197 152 219 240 215
327 258 245 293 232 159 162 216 299 33 29 82 64 48 131 256 36 337 7 324 208 217 247 163 124 36 239 237 262 294 291 293 268 223 231 194 208 205 211 213 214 213 211 179 165 158 172 178 177 183 183 176 175 183 185 185 182 182 182 182 178 185 184 177 171 173 173 173 176 173 175 174 170 169 172 175 173 176 172 176 176 170 187 185 189 214
276 287 319 281 322 226 120 171 274 342 10 108 161 137 89 129 59 252 270 215 308 292 269 257 201 230 245 287 241 233 255 257 291 260 236 227 200 202 202 202 207 208 202 189 165 165 171 178 178 179 179 182 186 188 188 186 184 185 185 186 185 188 186 176 173 175 174 182 181 177 176 174 169 174 175 178 173 179 178 173 176 176 176 180 187 190
352 345 306 137 270 248 148 190 177 185 161 193 152 153 179 141 159 233 197 222 223 221 277 283 77 240 107 242 238 215 247 283 298 302 303 197 253 253 247 188 161 182 195 180 173 175 175 179 178 178 183 185 187 191 190 186 187 184 187 188 192 186 187 179 177 174 179 183 183 182 181 173 173 172 177 181 178 174 174 182 173 181 176 177 194 183
202 208 251 221 226 207 310 305 140 106 54 278 153 86 75 236 139 196 202 170 227 275 343 329 206 192 210 259 298 325 333 26 341 3 0 9 16 12 18 48 189 192 183 182 181 183 180 180 181 180 184 188 190 191 190 187 183 187 190 190 191 186 185 185 178 180 180 181 180 177 178 181 173 173 172 174 179 178 174 175 173 181 180 185 172 187
87 241 263 305 55 84 21 1 301 122 178 268 96 173 213 167 129 126 6 184 105 44 256 198 328 309 303 328 323 357 24 19 25 5 20 23 44 45 50 52 35 5 343 311 194 171 185 184 183 184 186 191 191 188 190 189 188 189 188 189 191 190 186 185 184 181 178 174 172 183 179 171 172 170 171 176 178 179 183 172 175 172 180 166 155 162
145 237 292 83 325 79 275 141 10 249 144 88 204 245 275 90 113 144 225 322 158 200 260 28 209 294 32 287 326 12 27 21 45 22 31 39 61 55 37 41 40 34 33 19 345 320 217 186 185 191 194 190 187 190 193 193 191 190 187 186 186 187 186 191 185 181 176 174 179 177 180 180 177 177 176 169 170 171 163 174 166 161 151 165 163 148
109 332 306 307 144 288 337 36 356 335 52 68 295 210 159 328 298 317 76 269 271 281 267 306 259 263 183 258 359 24 9 357 11 19 38 29 34 48 36 37 29 33 36 27 352 326 320 294 249 193 194 199 195 193 192 193 189 186 189 188 185 188 188 183 185 184 183 179 179 180 181 178 178 176 172 172 162 161 162 165 164 162 165 149 146 138
58 161 299 294 56 270 27 61 299 301 341 136 101 20 288 113 180 169 205 186 131 243 90 284 34 243 228 196 176 85 347 9 26 40 48 49 35 29 20 26 36 33 37 44 25 329 292 303 286 279 237 203 198 200 204 193 187 190 189 187 194 192 184 179 184 182 182 187 180 181 172 176 175 173 172 170 161 166 169 168 162 157 147 161 151 148
50 110 212 282 284 357 350 51 171 122 36 346 5 337 356 349 223 140 320 136 171 176 181 188 294 278 248 213 156 138 131 73 64 66 61 60 46 40 33 35 29 25 19 26 25 1 9 235 233 351 360 330 316 268 208 190 191 194 189 190 189 184 185 185 187 183 189 182 187 173 176 177 173 175 170 166 167 165 171 168 164 161 159 142 153 148
63 26 200 313 354 304 246 216 145 134 145 208 186 251 255 319 331 6 280 354 77 106 220 144 246 258 269 218 152 148 159 99 76 79 60 48 47 31 26 27 30 18 14 22 12 7 359 352 314 201 164 149 109 41 326 266 229 195 192 194 189 187 185 186 187 192 189 188 183 181 180 175 172 167 164 163 166 166 168 168 163 158 143 154 171 152
145 162 98 224 199 228 261 293 299 42 143 173 162 258 212 178 116 151 246 276 344 254 130 154 197 258 225 200 142 149 150 123 114 96 69 39 38 35 32 41 34 41 20 36 43 337 347 321 303 295 258 195 158 133 126 212 276 255 232 206 193 187 193 190 190 190 186 185 186 187 178 167 167 164 164 160 164 164 165 164 159 154 151 158 163 158
120 76 49 280 292 300 319 304 358 34 19 16 14 43 64 34 51 168 232 214 219 288 288 338 226 256 290 261 128 107 105 120 118 92 86 16 7 19 15 15 7 359 360 2 17 21 112 336 312 308 294 159 163 164 172 184 183 175 168 254 263 219 201 196 191 185 181 186 189 184 170 171 166 163 164 164 165 163 164 160 158 158 152 160 152 155
33 303 109 15 356 346 343 350 359 341 47 67 307 296 98 82 73 218 214 90 276 225 180 139 238 283 265 310 51 91 97 77 60 24 64 45 353 359 360 2 9 10 6 8 12 6 9 22 12 323 290 230 205 185 176 177 194 202 195 163 166 293 306 268 215 182 183 183 182 181 178 172 167 169 170 166 163 163 162 161 156 158 155 150 157 165
148 200 118 255 243 268 286 316 273 282 272 270 211 286 61 30 327 24 6 352 71 280 118 163 257 260 277 329 16 11 22 50 189 181 164 107 106 10 5 3 9 27 25 21 16 20 7 354 15 11 343 324 294 234 199 198 191 201 204 181 162 155 144 146 312 277 196 179 181 184 183 174 170 174 173 165 163 163 163 158 154 158 157 156 163 161
109 41 118 154 166 197 203 209 239 163 342 300 285 277 280 85 88 104 115 130 211 245 303 241 229 289 300 318 23 353 344 332 332 344 13 34 21 18 21 24 26 27 35 28 23 16 13 7 4 13 357 323 310 306 272 213 199 200 201 199 175 163 155 156 157 148 306 282 201 184 186 179 176 168 165 164 161 156 154 155 155 152 160 166 161 151
54 354 274 175 202 200 189 203 213 229 255 263 277 284 298 124 141 212 235 249 183 44 285 250 228 237 279 310 340 314 305 303 306 338 12 30 36 41 44 48 33 27 18 23 25 18 8 2 4 6 358 348 336 323 320 306 266 211 203 208 199 184 173 166 161 164 171 183 231 217 197 187 165 156 156 154 152 155 156 151 149 159 156 147 143 140
142 214 272 160 248 211 195 204 209 224 228 241 252 260 266 269 200 245 231 220 139 173 230 262 195 224 266 277 312 313 296 309 355 14 26 32 27 19 23 22 22 22 21 26 16 13 6 1 357 355 359 347 341 334 323 321 318 310 274 237 213 191 179 160 156 160 158 146 148 321 331 351 129 133 140 148 149 150 154 154 154 151 147 141 134 139
63 257 232 202 242 228 225 218 225 224 242 252 252 253 238 222 254 228 246 215 177 213 222 250 267 238 262 300 336 334 4 47 31 13 26 30 13 16 19 16 17 18 15 9 3 359 353 350 351 350 352 352 348 340 327 305 283 268 281 262 211 194 178 157 159 158 154 153 136 110 95 175 140 150 145 147 156 155 152 150 149 148 141 139 141 142
74 275 227 11 14 302 278 258 247 234 233 254 251 193 167 223 250 244 222 248 195 264 263 254 279 289 266 246 335 26 48 46 39 28 8 345 360 10 18 21 21 17 2 358 354 348 340 342 346 348 353 347 342 331 327 314 287 266 240 248 259 214 180 164 157 157 159 157 138 126 119 150 160 150 160 165 154 148 146 150 148 139 133 134 139 148
10 278 2 44 315 300 270 249 255 260 280 273 273 59 301 300 292 259 231 232 201 259 279 30 290 264 273 302 239 74 51 58 51 12 349 324 322 357 46 32 21 5 353 343 336 337 338 336 340 340 338 334 329 325 323 320 307 290 261 232 220 220 188 159 155 158 165 165 162 161 159 160 154 144 186 173 162 157 153 142 133 131 131 132 139 161
206 216 345 2 291 263 250 229 261 11 356 287 273 205 219 238 243 278 300 103 218 179 128 178 234 217 223 272 17 1 52 56 32 326 307 309 308 42 57 23 353 341 335 325 330 332 331 328 322 316 317 319 317 320 317 318 313 297 276 254 219 169 171 166 165 165 162 154 145 139 137 139 142 147 173 186 165 155 142 134 123 123 132 156 173 143
176 198 248 160 211 239 279 16 44 36 257 240 231 173 151 179 182 177 305 172 224 128 197 177 193 223 321 28 60 334 3 340 304 272 242 231 143 59 14 337 305 300 299 299 296 307 312 319 321 317 304 290 289 294 308 310 301 296 275 210 194 186 176 163 153 152 150 152 152 148 147 149 148 153 171 170 158 147 137 135 145 154 152 135 115 97
246 259 234 175 194 250 260 16 347 257 259 205 240 215 153 153 139 161 188 209 201 316 81 90 111 42 232 228 207 244 254 260 267 259 264 166 145 115 342 298 297 303 297 290 300 305 307 306 312 319 322 322 317 304 302 303 304 306 289 212 172 177 174 164 155 148 147 149 151 153 154 154 155 152 160 161 153 145 141 135 135 136 130 127 136 131
229 214 221 242 154 57 89 138 215 248 233 281 295 275 218 93 83 142 55 314 276 185 152 151 199 217 228 235 255 259 259 269 273 272 227 179 129 61 326 308 291 290 289 272 265 274 285 293 296 303 308 308 310 307 297 286 288 290 291 262 172 142 126 114 99 108 144 152 158 159 156 149 143 147 154 152 147 139 138 135 136 127 134 115 112 123
217 159 164 256 170 221 182 182 233 336 317 290 275 270 238 244 175 162 223 250 261 245 134 150 193 216 224 223 230 256 260 238 164 255 282 246 280 298 301 289 277 276 269 267 249 257 249 256 279 291 296 296 296 295 293 291 286 285 274 243 213 162 156 152 153 158 165 157 142 134 139 140 145 151 148 145 141 141 132 119 115 130 127 122 141 146
201 191 193 178 245 178 222 265 309 310 263 285 245 302 356 332 130 143 104 282 285 272 195 144 212 256 263 279 294 302 339 359 327 292 248 281 287 297 297 286 284 277 268 266 271 260 261 269 278 282 282 289 288 281 283 285 285 281 270 227 212 195 177 173 172 168 165 165 159 156 155 143 140 146 141 135 134 126 123 124 129 148 154 144 160 174
299 212 171 179 219 100 168 214 229 228 247 217 305 318 330 21 86 66 64 281 252 240 265 204 281 240 235 316 317 9 21 332 290 279 252 251 290 289 288 287 279 278 276 272 273 286 284 280 278 286 291 286 281 279 275 276 280 272 257 230 193 196 185 176 166 164 161 158 152 147 145 146 148 146 135 130 128 128 132 143 153 166 160 166 172 185
3 50 106 189 233 181 151 199 240 190 244 333 316 317 319 353 48 65 278 275 265 269 273 224 258 245 269 222 172 71 237 284 283 285 268 252 264 271 276 289 294 288 284 283 280 272 278 284 300 300 299 290 281 279 272 272 269 257 242 225 178 169 172 169 169 162 146 135 134 137 145 147 142 133 127 126 126 130 141 147 141 163 178 190 183 180
359 339 91 221 223 237 174 261 349 305 329 276 298 322 317 23 56 91 204 238 244 251 256 211 209 226 218 225 198 263 223 219 260 279 293 295 304 297 280 263 270 278 287 297 296 297 290 285 277 282 282 283 282 280 271 267 258 244 229 206 184 181 173 163 156 154 155 147 140 134 131 129 131 126 126 131 138 148 152 160 171 182 185 189 192 172
350 342 308 31 59 240 220 198 233 231 238 256 261 240 276 25 43 209 232 213 257 262 239 195 204 236 211 224 215 225 254 257 269 284 289 287 278 279 289 292 292 296 292 289 295 294 288 285 282 278 278 275 277 273 270 268 248 230 214 200 190 179 162 152 151 143 130 126 127 128 128 145 133 128 131 135 134 147 177 192 177 182 190 179 171 175
297 356 264 329 304 7 103 216 9 222 288 202 272 356 49 110 228 230 273 297 231 227 213 249 224 254 202 250 245 249 266 277 273 274 279 285 283 281 285 292 297 300 304 308 305 295 282 283 282 275 272 277 277 274 264 272 241 205 198 199 187 160 151 151 133 128 124 123 128 134 145 146 134 130 130 143 159 166 190 189 182 184 163 163 162 172
264 42 313 307 174 211 291 240 179 203 246 215 162 273 249 218 262 270 229 274 277 229 232 246 263 241 234 233 257 262 252 257 272 272 277 277 277 274 274 282 293 300 300 294 287 287 283 277 276 273 270 270 265 264 265 286 277 203 186 194 171 158 146 138 130 124 126 131 142 144 141 132 130 135 145 156 164 174 178 180 188 171 178 166 164 174
45 224 195 233 278 204 219 220 255 260 222 239 188 224 234 269 252 242 232 244 266 288 218 186 254 268 246 246 255 253 263 251 251 261 266 272 278 278 283 288 291 293 292 292 292 288 281 276 274 271 270 268 265 266 269 258 293 235 171 159 140 129 127 125 121 114 118 135 138 133 134 134 137 142 158 162 162 169 173 177 161 174 189 153 157 174
250 312 263 215 259 291 274 239 221 246 240 274 241 242 231 227 257 140 153 283 247 234 209 210 241 247 259 242 242 260 247 259 270 273 269 272 274 277 282 288 289 288 287 289 290 287 279 274 269 268 275 267 253 260 250 283 77 123 98 110 131 130 126 120 117 119 129 138 144 143 139 143 156 161 171 172 167 175 180 172 177 188 174 166 187 197
254 195 74 230 272 4 281 330 331 302 306 299 294 234 224 199 212 200 227 215 233 239 244 241 237 249 252 256 241 252 266 265 267 270 271 274 277 280 284 286 289 293 295 294 291 289 284 270 265 266 281 312 293 289 283 249 84 118 109 99 128 130 123 117 120 131 145 149 146 145 150 153 162 170 165 163 175 152 127 146 166 173 172 185 197 211
305 345 344 262 256 219 247 283 291 287 278 266 250 232 275 275 269 251 225 233 247 255 253 264 272 277 270 268 254 253 262 265 266 272 274 269 272 282 281 288 295 296 291 289 289 286 277 262 259 295 298 273 271 281 277 114 123 114 111 118 112 111 112 121 134 143 153 159 151 154 155 154 161 152 142 131 129 111 101 144 162 167 184 189 201 210
248 326 259 264 297 282 288 288 283 300 298 291 286 270 266 260 267 282 275 267 264 268 270 270 252 252 259 258 261 258 266 267 260 261 263 274 276 277 284 289 290 286 287 289 288 282 266 274 299 285 274 272 248 261 262 214 128 133 138 138 153 152 144 146 154 147 150 153 145 148 141 143 154 135 113 94 81 130 174 169 177 192 220 227 195 196
278 260 257 279 286 282 257 277 306 315 303 301 278 268 276 277 275 275 288 291 275 271 269 268 272 263 246 247 255 260 261 266 265 257 263 266 270 279 287 287 285 288 286 284 282 276 265 263 269 277 286 282 245 206 205 163 137 147 176 175 185 169 154 146 140 137 139 141 138 134 127 127 100 94 100 114 131 134 90 245 186 194 181 225 233 230
211 253 252 236 231 262 266 264 261 245 260 259 273 256 259 275 275 278 277 271 269 257 257 260 267 274 275 273 257 251 261 259 264 262 271 280 279 276 278 284 286 284 285 283 284 280 272 272 279 289 281 273 157 138 144 148 154 169 188 175 166 155 140 136 134 134 131 130 133 127 110 92 97 109 120 135 139 136 129 51 27 218 233 239 250 230